Meteo Giornale » Osservazioni meteo Stati Uniti (USA) » Kekaha Pacific Missile Test Facility Barking Sands
ore: 22:24 - Osservazioni Meteo Kekaha Pacific Missile Test Facility Barking Sands
Lat. 22° 2' N Lon. 159° 47' W Alt. 4 metri s.l.m.
27 °C
Nuvoloso
Temp. 24 Ore
24 °C
31 °C
Ovest
9.3 Km/h
Dew point 19 °C
Umidità 61 %
Visibilità 10 Km
Il sole sorge alle ore 06:21
Il sole tramonta alle ore 18:56
| Data e Ora | Cielo e Fenomeni | T °C | DP °C | Um. % | Pres. hPa | Vis. km | Vento km/h | |
|---|---|---|---|---|---|---|---|---|
| Oggi h: 22:24 | Nuvoloso | 27 | 19 | 61 | 1016 | 10 | O 9.3 | |
| Oggi h: 21:51 | Coperto | 27 | 19 | 61 | 1016 | 10 | N 0 | |
| Oggi h: 21:14 | Coperto | 27 | 19 | 61 | 1016 | 10 | N 0 | |
| Oggi h: 20:51 | Coperto | 27 | 19 | 61 | 1015 | 10 | N 0 | |
| Oggi h: 20:36 | Coperto | 26 | 19 | 65 | 1015 | 10 | N 5.5 | |
| Oggi h: 20:02 | Coperto | 27 | 21 | 69 | 1015 | 10 | N/NE 11.1 | |
| Oggi h: 19:51 | Molto Nuvoloso | 27 | 21 | 69 | 1015 | 10 | N/NE 14.8 | |
| Oggi h: 18:51 | Poco Nuvoloso | 28 | 19 | 58 | 1015 | 10 | N 16.7 | |
| Oggi h: 17:51 | Molto Nuvoloso | 28 | 20 | 61 | 1014 | 10 | N 0 | |
| Oggi h: 17:41 | Molto Nuvoloso | 28 | 20 | 61 | 1014 | 10 | N 0 | |
| Oggi h: 17:37 | Molto Nuvoloso | 28 | 21 | 65 | 1014 | 10 | N 5.5 | |
| Oggi h: 17:10 | Coperto | 27 | 21 | 69 | 1014 | 10 | E/NE 7.4 | |
| Oggi h: 17:03 | Coperto | 28 | 21 | 65 | 1014 | 10 | E/NE 9.3 | |
| Oggi h: 16:51 | Coperto | 29 | 21 | 62 | 1014 | 10 | N 18.5 | |
| Oggi h: 15:51 | Coperto | 29 | 21 | 62 | 1014 | 10 | O/SO 18.5 | |
| Oggi h: 13:51 | Molto Nuvoloso | 31 | 20 | 52 | 1014 | 10 | SO 11.1 | |
| Oggi h: 12:51 | Molto Nuvoloso | 29 | 20 | 58 | 1015 | 10 | O 9.3 | |
| Oggi h: 11:51 | Molto Nuvoloso | 28 | 21 | 65 | 1016 | 10 | N/NO 16.7 | |
| Oggi h: 11:28 | Molto Nuvoloso | 29 | 21 | 62 | 1016 | 10 | O/NO 13 | |
| Oggi h: 11:22 | Molto Nuvoloso | 28 | 21 | 65 | 1016 | 10 | NO 13 | |
| Oggi h: 11:13 | Molto Nuvoloso | 28 | 21 | 65 | 1016 | 10 | NO 16.7 | |
| Oggi h: 10:51 | Coperto | 28 | 20 | 61 | 1016 | 10 | N/NO 13 | |
| Oggi h: 10:33 | Coperto | 28 | 20 | 61 | 1016 | 10 | O 9.3 | |
| Oggi h: 10:00 | Molto Nuvoloso | 28 | 21 | 65 | 1017 | 10 | S/SO 9.3 | |
| Oggi h: 09:57 | Molto Nuvoloso | 28 | 21 | 65 | 1017 | 10 | S/SO 9.3 | |
| Oggi h: 09:51 | Molto Nuvoloso | 28 | 21 | 65 | 1017 | 10 | SO 11.1 | |
| Oggi h: 09:48 | Coperto | 28 | 21 | 65 | 1017 | 10 | S/SO 13 | |
| Oggi h: 08:51 | Molto Nuvoloso | 27 | 21 | 69 | 1017 | 10 | O/NO 7.4 | |
| Oggi h: 08:47 | Molto Nuvoloso | 27 | 21 | 69 | 1017 | 10 | N 5.5 | |
| Oggi h: 07:51 | Poco Nuvoloso | 27 | 21 | 69 | 1016 | 10 | N 5.5 | |
| Oggi h: 07:15 | Coperto | 26 | 20 | 69 | 1016 | 10 | N 0 | |
| Oggi h: 07:07 | Coperto | 25 | 21 | 78 | 1016 | 10 | N 0 | |
| Oggi h: 06:59 | Coperto | 25 | 19 | 69 | 1016 | 10 | N 0 | |
| Oggi h: 06:51 | Coperto | 25 | 19 | 69 | 1016 | 10 | N 0 | |
| Oggi h: 05:51 | Poco Nuvoloso | 24 | 21 | 83 | 1015 | 10 | N 5.5 | |
| Oggi h: 04:51 | Poco Nuvoloso | 24 | 20 | 78 | 1015 | 10 | N 0 | |
| Oggi h: 03:51 | Nuvoloso | 25 | 21 | 78 | 1015 | 10 | SE 9.3 | |
| Oggi h: 03:44 | Nuvoloso | 25 | 20 | 73 | 1015 | 10 | S/SE 9.3 | |
| Oggi h: 03:30 | Coperto | 26 | 21 | 73 | 1015 | 10 | S/SE 7.4 | |
| Oggi h: 03:14 | Coperto | 26 | 20 | 69 | 1015 | 10 | N 5.5 | |
| Oggi h: 02:51 | Molto Nuvoloso | 25 | 19 | 69 | 1015 | 10 | N/NE 7.4 | |
| Oggi h: 02:42 | Molto Nuvoloso | 25 | 19 | 69 | 1015 | 10 | N 5.5 | |
| Oggi h: 01:56 | Molto Nuvoloso | 25 | 19 | 69 | 1015 | 10 | N 0 | |
| Oggi h: 01:51 | Molto Nuvoloso | 25 | 19 | 69 | 1016 | 10 | N 0 | |
| Oggi h: 01:37 | Molto Nuvoloso | 25 | 19 | 69 | 1016 | 10 | N 0 | |
| Oggi h: 01:25 | Molto Nuvoloso | 24 | 19 | 73 | 1016 | 10 | N 0 | |
| Oggi h: 00:51 | Sereno | 24 | 18 | 69 | 1016 | 10 | N 0 | |
| Ieri h: 23:51 | Poco Nuvoloso | 25 | 18 | 65 | 1017 | 10 | N 5.5 | |



